Liberal, Kansas
Current Conditions -  °F | °C
As of 2:35 AM on Sunday 21 Dec 2014 (Local Time) from KLBL Reporting Station
Clear Clear  
Wind Chill: 24°   Ceiling: Unl
Heat Index: 30°   Visibility: 5mi
Dew Point: 27°   Wind: 6mph
Humidity: 86%   Direction: 200°SSW
Pressure: 29.95"   Gusts: NA
Location:  37.04°N, 100.92°W
Report Text: KLBL 210835Z AUTO 20005KT 5SM CLR M01/M03 A2995 RMK AO1
Loading
Personal Weather Stations






























Interactive Weather Map New forecast layout! Learn more

10-Day Weather Forecast

Advertisements
Track Severe Weather on mobile